Regional Weather Roundup
Issued by NWS

Home | Current Version | Previous Version | Text Only | Print | Product List | Glossary On
Versions: 1 2 3 4 5 6 7 8 9 10 11 12 13 14 15 16 17 18 19 20 21 22 23 24 25 26 27 28 29 30 31 32 33 34 35 36 37 38 39 40 41 42 43 44 45 46 47 48 49 50
000
ASUS44 KFWD 210915
RWRTX
NORTH TEXAS HOURLY WEATHER ROUNDUP
NATIONAL WEATHER SERVICE FORT WORTH TX
300 AM CST SUN DEC 21 2014

NOTE: "FAIR" INDICATES FEW OR NO CLOUDS BELOW 12,000 FEET WITH NO
SIGNIFICANT WEATHER AND/OR OBSTRUCTIONS TO VISIBILITY.

TXZ118-119-211000-
DALLAS/FORT WORTH METROPLEX

CITY           SKY/WX    TMP DP  RH WIND       PRES   REMARKS
DFW AIRPORT    CLOUDY    47  44  90 S6        30.14S
DALLAS LOVE    CLOUDY    48  44  86 SE10      30.15F
FTW MEACHAM    CLOUDY    48  44  86 SE10      30.12F FOG
DAL-EXECUTIVE  CLOUDY    48  44  86 S5        30.14F
FTW-ALLIANCE   CLOUDY    47  44  90 SE5       30.12F
FTW-SPINKS     CLOUDY    47  45  91 SE5       30.15F FOG
ARLINGTON      CLOUDY    48  43  82 S7        30.14F
GRAND PRAIRIE  CLOUDY    47  47  97 MISG      30.16S
ADDISON        CLOUDY    48  48 100 S5        30.16S
MESQUITE       CLOUDY    47  45  91 CALM      30.16S
LANCASTER      CLOUDY    46  44  90 CALM      30.17S
$$

TXZ091>094-102>105-117-120-121-131>134-211000-
NORTH CENTRAL TEXAS

CITY           SKY/WX    TMP DP  RH WIND       PRES   REMARKS
SHRMAN/DENISON CLOUDY    47  46  97 SE8       30.15F FOG
GAINESVILLE    CLOUDY    45  44  96 SE5       30.14F FOG
BOWIE          CLOUDY    44  43  97 SE6       30.09F FOG
BRIDGEPORT     MOCLDY    44  43  96 SE3       30.13F FOG
DECATUR        CLOUDY    44  43  97 SE7       30.11F FOG
DENTON         CLOUDY    47  44  90 S6        30.13F
MCKINNEY       CLOUDY    47  45  93 SE5       30.15F FOG
GREENVILLE     CLOUDY    46  45  93 SE5       30.16S FOG
ROCKWALL       CLOUDY    47  45  92 SE3       30.14F
TERRELL        CLOUDY    49  45  86 SE3       30.16F
WAXAHACHIE     CLOUDY    46  46  99 SE5       30.16S
CLEBURNE       CLOUDY    46  46 100 SE6       30.15S FOG
GRANBURY       CLOUDY    48  46  90 SE7       30.13F FOG
$$

TXZ083>090-098>101-113>116-127>130-139>142-154-155-211000-
WESTERN NORTH TEXAS

CITY           SKY/WX    TMP DP  RH WIND       PRES   REMARKS
WICHITA FALLS  CLOUDY    42  39  89 E6        30.08F WCI  38
WF-KICKAPOO    CLOUDY    42  39  90 SE5       30.10S WCI  39
VERNON         CLOUDY    44  39  81 SE8       30.06F WCI  39
ABILENE        MOCLDY    43  40  89 S10       30.04F WCI  37
ABILENE-DYESS  MOCLDY    43  37  81 S13       30.03S WCI  36
BRECKENRIDGE   CLOUDY    48  41  76 S9G16     30.08F
GRAHAM         CLOUDY    44  43  95 SE5       30.08S
MINERAL WELLS  CLOUDY    46  44  93 SE8       30.10S FOG
STEPHENVILLE   CLOUDY    46  43  88 S8        30.14S
COMANCHE       CLOUDY    47  44  90 S8        30.11F
BROWNWOOD      CLOUDY    46  41  81 SE10      30.09F
COLEMAN        CLOUDY    45  43  92 S10       30.07F WCI  39
BRADY          CLOUDY    45  43  93 SE8       30.07F
$$

TXZ143>147-156>162-174-175-211000-
CENTRAL TEXAS

CITY           SKY/WX    TMP DP  RH WIND       PRES   REMARKS
WACO           CLOUDY    48  45  89 SE8       30.15F
WACO-MCGREGOR  CLOUDY    48  43  81 SE8       30.16F
HILLSBORO      CLOUDY    48  44  87 SE5       30.15S
CORSICANA      CLOUDY    47  43  86 SE3       30.16F
MEXIA          CLOUDY    47  44  90 S3        30.15F
HEARNE         CLOUDY    47  46  93 CALM      30.17F FOG
CAMERON        CLOUDY    48  46  93 CALM      30.16S
TEMPLE         CLOUDY    46  43  87 SE6       30.14S
KILLEEN        CLOUDY    46  46 100 SE5       30.13F
KILLEEN-SKYLRK CLOUDY    48  43  81 SE3       30.13F
FORT HOOD      CLOUDY    48  47  95 S2        30.13F
GATESVILLE     CLOUDY    48  46  93 CALM      30.16F
HAMILTON       CLOUDY    47  45  91 SE8G16    30.13F
$$

TXZ095>097-106>112-122>126-135>138-148>153-164>167-211000-
EAST TEXAS

CITY           SKY/WX    TMP DP  RH WIND       PRES   REMARKS
PARIS          CLOUDY    46  41  81 S6        30.17F
SULPHUR SPRNGS CLOUDY    47  45  93 S6        30.18F
MOUNT PLEASANT CLOUDY    42  42 100 CALM      30.19F
MINEOLA        CLOUDY    45  45 100 CALM      30.18F FOG
TYLER          CLOUDY    43  41  93 CALM      30.16F
LONGVIEW       FOG       38  36  92 NW3       30.17S VSB 3/4
MARSHALL         N/A     36  34  94 CALM      30.19S
ATHENS         CLOUDY    43  41  93 CALM      30.16S
PALESTINE      CLOUDY    41  41 100 CALM      30.18F FOG
JACKSONVILLE   CLOUDY    43  42  98 CALM      30.17S FOG
HENDERSON      CLOUDY    38  38 100 CALM      30.18R FOG
NACOGDOCHES    CLOUDY    36  34  93 CALM      30.17S
LUFKIN         CLOUDY    43  39  86 CALM      30.16F FOG
$$

SUPPLEMENTAL OBSERVATIONS (CENTRAL)

CITY           SKY/WX    TMP DP  RH WIND       PRES   REMARKS
LAKE TEXOMA      N/A     46  41  81 SE3         N/A
CADDO GRASSLND   N/A     46  41  81 S5          N/A
PAT MAYSE LAKE   N/A     45  41  87 SE7         N/A
GREENVILLE       N/A     46  41  81 SE5         N/A
CEDAR HILL       N/A     46  43  87 SE6         N/A
PALESTINE        N/A     41  39  93 E1          N/A
LAKE LIMESTONE   N/A     48  45  87 W2          N/A
MCGREGOR         N/A     48  45  87 SE6         N/A
TEMPLE           N/A     48  45  87 E5          N/A
$$

SUPPLEMENTAL OBSERVATIONS (WEST)

CITY           SKY/WX    TMP DP  RH WIND       PRES   REMARKS
MILLERS CREEK    N/A     45  41  87 S8          N/A
POSSUM KINGDOM   N/A     45  39  81 SE9         N/A  WCI  40
LBJ GRASSLAND    N/A     45  39  81 SE6         N/A
GRANBURY         N/A     46  41  81 SE9         N/A
COMANCHE         N/A     46  45  93 S10         N/A
HAMBY            N/A     43  39  87 S10         N/A  WCI  37
IVIE RESERVOIR   N/A     46  41  81 SE9         N/A
COLORADO BEND    N/A     46  41  81 S5          N/A
$$

SUPPLEMENTAL OBSERVATIONS (EAST)

CITY           SKY/WX    TMP DP  RH WIND       PRES   REMARKS
CLARKSVILLE      N/A     45  43  93 SE6         N/A
TEXARKANA        N/A     34  32  93 CALM        N/A
LINDEN           N/A     36  34  93 CALM        N/A
CADDO LAKE       N/A     34  32  93 CALM        N/A
GILMER           N/A     39  37  93 CALM        N/A
HENDERSON        N/A     37  34  87 CALM        N/A
LUFKIN           N/A     41  39  93 MISG        N/A
N SABINE NF      N/A     36  32  87 MISG        N/A
S SABINE NF      N/A     39  36  87 NW1         N/A
$$

SUPPLEMENTAL OBSERVATIONS ARE A COLLECTION OF AUTOMATED INSTRUMENTS
THAT ARE MAINTAINED BY A VARIETY OF FEDERAL AND STATE AGENCIES.
CERTAIN ELEMENTS...SUCH AS HUMIDITY VALUES AND SUSTAINED WIND
SPEEDS...MAY BE APPROXIMATED.



USA.gov is the U.S. government's official web portal to all federal, state and local government web resources and services.